Retour au catalogue

STARLINK-35818

ActifCommunicationsVLEO
NORAD 66540·PAYLOAD·🇺🇸 United States

Lancé Nov 19, 2025 depuis Cape Canaveral Space Force Station

Loading…

Prochains Passages (prochaines 24 heures)

TLE

FraisSource: CelesTrak SupGP

Époque: Sep 14, 2026, 22:39 UTC

1 66540C 25265AA  26257.94423611  .00027220  00000+0  98581-3 0  2576
2 66540  43.0026 289.5566 0001725 270.6217  46.2213 15.27568344    13

Suivez STARLINK-35818 en temps réel avec AllMySat

Download on the App Store